[[{"header":{"parameterUnit":"m.s-1","parameterCategory":1,"la1":30.2991,"la2":30.254,"lo1":-89.0895,"lo2":-89.0444,"dy":0.0017,"dx":0.0017,"nx":28,"ny":28,"refTime":"2024-08-02T09:00:00:Z","depth":0,"parameterNumber":2,"parameterNumberName":"U-component_of_WINDS"},"data":[0,0,0,0,0,0,0,0,0,0,0,0,0,0,0,0,0,0,0,0,0,0,0,0,0,0,0,0,0,0,0,0,0,0,0,0,0,0,0,0,0,0,0,0,0,0,0,0,0,0,0,0,0,0,0,0,0,0,2.4233,2.4234,0,2.4306,2.4307,2.4308,2.4301,2.43,2.4299,2.4298,2.4377,2.438,2.4383,0,0,0,0,0,0,0,0,0,0,0,0,0,2.4093,2.4096,2.4233,2.4234,2.4235,2.4306,2.4307,2.4308,2.4302,2.43,2.4299,2.4298,2.4376,2.4379,2.4383,0,0,0,0,0,0,0,0,0,0,0,0,0,2.4159,2.4097,2.4233,2.424,2.4242,2.4306,2.4307,2.4308,2.4302,2.43,2.4299,2.4297,2.4374,2.4379,2.4384,2.4446,0,0,2.4398,2.44,0,0,0,0,0,0,0,0,2.4155,2.4164,2.4238,2.424,2.4242,2.4293,2.4287,2.4355,2.4302,2.4279,2.4298,2.4296,2.435,2.4357,2.4374,2.445,2.4454,2.4398,2.4401,2.4403,2.4405,0,0,0,0,0,0,0,2.4151,2.4161,2.4262,2.424,2.4242,2.4242,2.4249,2.4299,2.4324,2.4281,2.4281,2.4289,2.4351,2.437,2.4376,2.4455,2.4398,2.4402,2.4405,2.4407,2.4589,2.4591,0,0,0,0,0,0,2.4144,2.4157,2.426,2.4264,2.4193,2.4245,2.4254,2.4278,2.4323,2.4328,2.4291,2.4289,2.4363,2.4371,2.4379,2.4458,2.4403,2.4408,2.441,2.4587,2.4589,2.4591,0,0,0,0,0,0,2.4141,2.4153,2.4257,2.4211,2.4224,2.425,2.4277,2.4281,2.4299,2.433,2.4335,2.4305,2.4362,2.4372,2.443,2.4461,2.441,2.4414,2.4584,2.4588,2.459,2.4615,0,0,0,0,0,0,2.4137,2.4152,2.4175,2.4211,2.4227,2.4306,2.4279,2.4283,2.4307,2.4305,2.4345,2.435,2.4361,2.4423,2.4435,2.4466,2.4418,2.4582,2.4586,2.4589,2.4612,2.4618,2.4624,0,0,0,0,0,2.4132,2.4179,2.4176,2.4189,2.4256,2.4307,2.4316,2.4327,2.4309,2.4334,2.4354,2.4349,2.4455,2.4429,2.4442,2.4475,2.458,2.4585,2.4589,2.4609,2.4617,2.4624,0,0,0,0,0,0,2.4147,2.4184,2.4181,2.4241,2.4271,2.4306,2.4337,2.4335,2.4371,2.4368,2.4381,2.439,2.4449,2.4467,2.4438,2.454,2.4515,2.4523,2.4526,2.4534,2.454,2.4536,2.4422,0,0,0,0,0,2.4157,2.4195,2.4225,2.4276,2.4291,2.4311,2.4334,2.434,2.4372,2.4385,2.4409,2.4441,2.4482,2.4509,2.4548,2.4614,2.4624,2.4643,2.4649,2.4654,2.4662,2.4701,2.4711,2.4606,2.4606,2.4606,0,0,2.4179,2.4204,2.4227,2.4279,2.4303,2.4344,2.4322,2.4365,2.4396,2.4392,2.4448,2.4467,2.4504,2.4567,2.4596,2.4584,2.4692,2.466,2.4664,2.4668,2.4706,2.4716,2.4725,2.4609,2.4609,2.4608,0,0,2.424,2.4261,2.4306,2.4331,2.4367,2.438,2.4391,2.4427,2.4439,2.4495,2.4493,2.4531,2.46,2.4628,2.4651,2.4723,2.4721,2.4735,2.4769,2.4808,2.4816,2.4823,2.4852,2.4862,2.4742,2.4742,2.4742,0,2.4263,2.4322,2.433,2.4375,2.4399,2.4395,2.4443,2.4467,2.4514,2.4532,2.4518,2.4606,2.4631,2.4701,2.4719,2.4737,2.4752,2.4732,2.4814,2.4821,2.4828,2.4856,2.4866,2.4743,2.4743,2.4743,2.4743,0,2.435,2.4392,2.4424,2.447,2.4497,2.4543,2.456,2.4587,2.4591,2.4606,2.4665,2.4695,2.4741,2.4757,2.4761,2.483,2.4822,2.481,2.4786,2.484,2.4866,2.4877,2.4746,2.4745,2.4745,2.4744,0,0,2.4424,2.4473,2.4485,2.4507,2.4547,2.458,2.4626,2.467,2.4695,2.4727,2.4769,2.4828,2.4818,2.4844,2.4851,2.4884,2.4943,2.4869,2.487,2.4885,2.5024,2.5035,2.5046,2.4941,2.4943,2.4945,2.5022,0,2.4491,2.4572,2.4581,2.4654,2.4694,2.4692,2.4733,2.4763,2.4778,2.4816,2.4834,2.4877,2.4859,2.4876,2.4908,2.4929,2.4972,2.4923,2.4983,2.4985,2.4976,2.506,2.507,2.5142,2.5032,2.5034,2.5035,0,2.458,2.4615,2.4692,2.4728,2.4745,2.4782,2.4824,2.4859,2.4894,2.4903,2.4933,2.4936,2.4986,2.4958,2.5029,2.4996,2.5021,2.5035,2.5038,2.5046,2.5015,2.5073,2.5165,2.5177,2.5051,2.505,2.5048,0,2.463,2.4696,2.4752,2.477,2.4812,2.4838,2.4858,2.489,2.4917,2.4954,2.4972,2.5015,2.5039,2.5073,2.5089,2.5066,2.516,2.5133,2.5172,2.5172,2.5194,2.5193,2.5294,2.5205,2.5205,2.5204,2.5204,0,2.4706,2.4754,2.4775,2.4809,2.4864,2.4874,2.4928,2.4947,2.4976,2.5016,2.5015,2.5053,2.5069,2.511,2.5122,2.5181,2.5191,2.5202,2.5206,2.5204,2.5203,2.5222,2.5219,2.5207,2.5207,2.5206,2.5206,0,2.4772,2.4787,2.4848,2.4883,2.4893,2.4932,2.4963,2.4998,2.5013,2.5063,2.5075,2.51,2.5148,2.5166,2.5224,2.5233,2.5302,2.5299,2.529,2.5292,2.5331,2.5329,2.5451,2.5469,2.5365,2.5366,2.5366,0,2.4821,2.4858,2.4897,2.4923,2.4943,2.4984,2.5011,2.5023,2.5052,2.5095,2.5125,2.5172,2.5211,2.5288,2.5313,2.5358,2.5359,2.5398,2.5366,2.5364,2.5363,2.5362,2.5368,2.5406,2.5407,2.5407,2.5408,0,2.4907,2.4913,2.4951,2.4993,2.5025,2.5059,2.5092,2.5113,2.5131,2.5163,2.5212,2.5242,2.5301,2.535,2.5396,2.5418,2.5418,2.5418,2.543,2.543,2.5425,2.5432,2.531,2.5416,2.5415,2.5414,2.5414,2.5414,2.4968,2.5002,2.5035,2.5078,2.5104,2.5135,2.517,2.5189,2.5229,2.5278,2.5283,2.5336,2.5372,2.5434,2.5458,2.5501,2.5491,2.5508,2.5513,2.5518,2.5522,2.5415,2.551,2.5509,2.5509,2.5509,2.5509,0,2.5057,2.5078,2.5118,2.5164,2.5199,2.5192,2.5228,2.5259,2.5305,2.5338,2.5376,2.5433,2.548,2.5508,2.5556,2.5585,2.5586,2.5597,2.5597,2.5603,2.5527,2.5513,2.5596,2.5596,2.5596,2.5596,2.5596,2.5596,2.5108,2.5165,2.5175,2.5246,2.5268,2.5319,2.5341,2.537,2.5396,2.546,2.5498,2.5516,2.5547,2.5598,2.5641,2.5648,2.5668,2.5681,2.5687,2.5617,2.5608,2.5599,2.5587,2.5684,2.5684,2.576,2.5761,2.5762]},{"header":{"parameterUnit":"m.s-1","parameterCategory":1,"la1":30.2991,"la2":30.254,"lo1":-89.0895,"lo2":-89.0444,"dy":0.0017,"dx":0.0017,"nx":28,"ny":28,"refTime":"2024-08-02T09:00:00:Z","depth":0,"parameterNumber":3,"parameterNumberName":"V-component_of_WINDS"},"data":[0,0,0,0,0,0,0,0,0,0,0,0,0,0,0,0,0,0,0,0,0,0,0,0,0,0,0,0,0,0,0,0,0,0,0,0,0,0,0,0,0,0,0,0,0,0,0,0,0,0,0,0,0,0,0,0,0,0,0.5313,0.5314,0,0.5369,0.537,0.537,0.5388,0.5388,0.5388,0.5388,0.5445,0.5447,0.5448,0,0,0,0,0,0,0,0,0,0,0,0,0,0.5219,0.5221,0.5313,0.5314,0.5314,0.5369,0.537,0.537,0.5389,0.5388,0.5388,0.5388,0.5444,0.5446,0.5449,0,0,0,0,0,0,0,0,0,0,0,0,0,0.5266,0.5221,0.5313,0.533,0.5332,0.5369,0.537,0.5371,0.5389,0.5388,0.5388,0.5388,0.5444,0.5446,0.5449,0.5472,0,0,0.5457,0.5458,0,0,0,0,0,0,0,0,0.5263,0.5269,0.5327,0.5329,0.5331,0.5371,0.5358,0.5405,0.5389,0.5367,0.5388,0.5387,0.5421,0.5425,0.5437,0.5475,0.5478,0.5457,0.5459,0.546,0.5461,0,0,0,0,0,0,0,0.526,0.5267,0.5335,0.5328,0.533,0.5334,0.534,0.5367,0.5395,0.5369,0.537,0.5377,0.5422,0.5434,0.5438,0.5478,0.5457,0.5459,0.5461,0.5462,0.5535,0.5536,0,0,0,0,0,0,0.5254,0.5264,0.5333,0.5337,0.5296,0.5336,0.5343,0.5359,0.5395,0.54,0.5377,0.5377,0.543,0.5435,0.544,0.5468,0.546,0.5462,0.5464,0.5535,0.5535,0.5536,0,0,0,0,0,0,0.5252,0.526,0.5331,0.5301,0.531,0.5338,0.5356,0.536,0.5372,0.5401,0.5406,0.5384,0.543,0.5436,0.5463,0.547,0.5463,0.5466,0.5535,0.5535,0.5536,0.5525,0,0,0,0,0,0,0.5249,0.5259,0.5269,0.5301,0.5312,0.5354,0.5356,0.5361,0.5377,0.5378,0.5409,0.5414,0.543,0.5459,0.5466,0.5474,0.5468,0.5534,0.5535,0.5535,0.5525,0.5526,0.5526,0,0,0,0,0,0.5246,0.5265,0.527,0.5278,0.5325,0.5355,0.5361,0.5379,0.5377,0.5387,0.5405,0.5413,0.5468,0.5462,0.547,0.5478,0.5534,0.5535,0.5535,0.5525,0.5526,0.5526,0,0,0,0,0,0,0.5235,0.527,0.5275,0.5306,0.5327,0.5358,0.5371,0.5379,0.5401,0.5401,0.5422,0.5429,0.5454,0.5469,0.5461,0.5501,0.5501,0.5504,0.5491,0.5491,0.5492,0.5488,0.547,0,0,0,0,0,0.5235,0.5257,0.5286,0.531,0.532,0.5343,0.5357,0.5368,0.5391,0.5401,0.5421,0.5443,0.5464,0.5479,0.5501,0.5527,0.5533,0.5536,0.5537,0.5537,0.5539,0.5551,0.5552,0.5539,0.5539,0.5539,0,0,0.5238,0.5259,0.5272,0.5308,0.5326,0.5347,0.5351,0.5374,0.5389,0.5404,0.5431,0.5446,0.5471,0.5497,0.551,0.551,0.5543,0.5538,0.5538,0.554,0.5552,0.5553,0.5554,0.5539,0.5539,0.5539,0,0,0.5252,0.5272,0.5292,0.5309,0.5336,0.5351,0.5355,0.5384,0.5395,0.5421,0.5432,0.545,0.5488,0.5505,0.5519,0.5535,0.5543,0.5542,0.5543,0.5555,0.5556,0.5557,0.5562,0.5563,0.5543,0.5543,0.5543,0,0.5252,0.5284,0.5302,0.5323,0.5337,0.5351,0.5371,0.5386,0.5419,0.5428,0.5428,0.5474,0.5492,0.5521,0.5525,0.5536,0.554,0.5539,0.5555,0.5556,0.5557,0.5561,0.5563,0.5543,0.5543,0.5543,0.5543,0,0.5281,0.5303,0.5316,0.5346,0.5362,0.5383,0.5402,0.5416,0.5424,0.5439,0.5464,0.5486,0.5511,0.5518,0.5528,0.5548,0.5547,0.5551,0.5551,0.5558,0.5562,0.5564,0.5542,0.5542,0.5543,0.5543,0,0,0.5293,0.5329,0.5334,0.5346,0.5375,0.5392,0.5411,0.5436,0.5446,0.5467,0.5483,0.5513,0.5516,0.5531,0.5542,0.5552,0.5562,0.5554,0.5555,0.5554,0.5582,0.5579,0.5581,0.5566,0.5567,0.5567,0.558,0,0.531,0.5347,0.5361,0.539,0.5409,0.5421,0.5437,0.5456,0.5469,0.5486,0.55,0.5521,0.5523,0.5532,0.5543,0.5558,0.5568,0.5558,0.5581,0.5581,0.5574,0.5584,0.5581,0.5593,0.5582,0.5582,0.5582,0,0.5337,0.5356,0.5387,0.541,0.5419,0.5434,0.5455,0.5472,0.5492,0.5501,0.5516,0.5526,0.5545,0.5543,0.5569,0.5562,0.5572,0.5581,0.5581,0.5585,0.5582,0.5586,0.5597,0.5598,0.5586,0.5585,0.5585,0,0.534,0.5374,0.5396,0.5407,0.5435,0.5445,0.5457,0.5477,0.5489,0.5508,0.5516,0.5536,0.5548,0.5563,0.5577,0.5575,0.5601,0.5601,0.5608,0.5607,0.5613,0.5613,0.5625,0.562,0.562,0.562,0.562,0,0.5358,0.5376,0.5398,0.5411,0.5431,0.5446,0.5465,0.5478,0.5495,0.551,0.5521,0.5535,0.5553,0.5569,0.558,0.5599,0.5604,0.561,0.5613,0.5609,0.5608,0.5616,0.5616,0.562,0.562,0.562,0.562,0,0.5365,0.5381,0.5405,0.5429,0.5435,0.5449,0.5469,0.5481,0.5494,0.5512,0.5518,0.5537,0.5556,0.5571,0.5596,0.5603,0.5622,0.5626,0.5616,0.5617,0.5622,0.5621,0.564,0.5642,0.5636,0.5636,0.5636,0,0.5376,0.539,0.5414,0.5425,0.5436,0.5454,0.5466,0.5481,0.5493,0.5515,0.5525,0.5544,0.556,0.5589,0.5605,0.5623,0.5627,0.5632,0.563,0.5625,0.5626,0.5625,0.5625,0.5632,0.5632,0.5632,0.5632,0,0.5392,0.5398,0.5416,0.5435,0.5449,0.5465,0.5481,0.5489,0.5506,0.5519,0.5538,0.555,0.5574,0.5593,0.5612,0.5624,0.563,0.5633,0.5635,0.5631,0.5624,0.5627,0.5615,0.5632,0.5632,0.5632,0.5632,0.5632,0.5401,0.5412,0.5431,0.5449,0.5462,0.5476,0.5489,0.5501,0.5517,0.5538,0.5546,0.5564,0.5581,0.5608,0.5619,0.5633,0.5634,0.5638,0.5639,0.5639,0.5638,0.5622,0.5637,0.5637,0.5637,0.5637,0.5637,0,0.5416,0.5428,0.5444,0.5466,0.5479,0.5484,0.5501,0.5512,0.5528,0.5544,0.5559,0.5579,0.5596,0.5612,0.5629,0.5637,0.5641,0.5641,0.5641,0.5643,0.5637,0.5633,0.5638,0.5638,0.5638,0.5638,0.5638,0.5638,0.5426,0.5446,0.5453,0.5479,0.549,0.5508,0.5518,0.553,0.5542,0.5564,0.5578,0.5588,0.5603,0.5621,0.5636,0.564,0.5646,0.5646,0.565,0.5644,0.5644,0.5644,0.564,0.5647,0.5647,0.5655,0.5655,0.5655]}]]